Weather History for KTBN - August, 2014

Change the Weather History Date:

Tuesday, August 26, 2014

  Actual Average Record
Temperature  
Mean Temperature 82 °F -  
Max Temperature 94 °F 85 °F 98 °F (2003)
Min Temperature 70 °F 66 °F 52 °F (2010)
Cooling Degree Days 16    
Growing Degree Days 32 (Base 50)    
Moisture  
Dew Point 71 °F    
Average Humidity 76    
Maximum Humidity 97    
Minimum Humidity 49    
Precipitation  
Precipitation 0.00 in - - ()
Sea Level Pressure  
Sea Level Pressure 30.07 in    
Wind  
Wind Speed 4 mph (SE)    
Max Wind Speed 8 mph    
Max Gust Speed -    
Visibility 10 miles    
Events Thunderstorm    
Averages and records for this station are not official NWS values.
T = Trace of Precipitation, MM = Missing Value Source: NWS Daily Summary

Daily Weather History Graph

Daily Weather History Graph

Search for Another Location

Airport or City:

Trip Planner

Search our weather history database for the weather conditions in past years. The results will help you decide how hot, cold, wet, or windy it might be!

Date:

Astronomy

Aug. 26, 2014 Rise Set
Actual Time 6:33 AM CDT 7:46 PM CDT
Civil Twilight 6:06 AM CDT 8:13 PM CDT
Nautical Twilight 5:33 AM CDT 8:45 PM CDT
Astronomical Twilight 5:00 AM CDT 9:19 PM CDT
Moon 7:32 AM CDT (8/26) 8:10 PM CDT (8/26)
Length of Visible Light 14h 07m
Length of Day
13h 12m
New Moon, 1% of the Moon is Illuminated
Aug 26
New Moon
Sep 2
First Quarter
Sep 8
Full
Sep 15
Last Quarter
Sep 24
New

Hourly Weather History & Observations

Time (CDT) Temp. Heat Index Dew Point Humidity Pressure Visibility Wind Dir Wind Speed Gust Speed Precip Events Conditions
12:58 AM 76.5 °F - 67.3 °F 73% 30.04 in 10.0 mi SSE 5.8 mph - N/A   Clear
1:58 AM 74.1 °F - 68.0 °F 81% 30.04 in 10.0 mi SSE 3.5 mph - N/A   Clear
2:58 AM 73.4 °F - 68.4 °F 84% 30.03 in 10.0 mi SSE 3.5 mph - N/A   Clear
3:58 AM 73.0 °F - 69.4 °F 88% 30.03 in 10.0 mi SSW 1.2 mph - N/A   Clear
4:58 AM 70.9 °F - 69.4 °F 95% 30.06 in 10.0 mi Calm Calm - N/A   Clear
5:58 AM 73.2 °F - 71.4 °F 94% 30.07 in 10.0 mi SW 2.3 mph - N/A   Clear
6:58 AM 72.3 °F - 71.4 °F 97% 30.09 in 10.0 mi SSE 3.5 mph - N/A   Clear
7:58 AM 76.5 °F - 72.9 °F 89% 30.11 in 10.0 mi SSE 4.6 mph - N/A   Clear
8:58 AM 81.7 °F 88.0 °F 74.8 °F 80% 30.11 in 10.0 mi SSW 4.6 mph - N/A   Clear
9:58 AM 86.5 °F 96.4 °F 75.7 °F 70% 30.10 in 10.0 mi SSW 4.6 mph - N/A   Partly Cloudy
10:58 AM 88.9 °F 98.1 °F 74.5 °F 62% 30.11 in 10.0 mi Calm Calm - N/A   Clear
11:58 AM 90.5 °F 100.9 °F 75.0 °F 60% 30.11 in 10.0 mi Variable 1.2 mph - N/A   Clear
12:58 PM 91.6 °F 99.9 °F 72.7 °F 54% 30.10 in 10.0 mi NNW 5.8 mph - N/A   Clear
1:58 PM 92.3 °F 103.4 °F 74.8 °F 57% 30.08 in 10.0 mi North 5.8 mph - N/A   Partly Cloudy
2:58 PM 93.4 °F 100.9 °F 71.6 °F 49% 30.05 in 10.0 mi ENE 5.8 mph - N/A   Clear
3:58 PM 91.2 °F 98.5 °F 71.8 °F 53% 30.04 in 10.0 mi ENE 8.1 mph - N/A Thunderstorm Clear
4:58 PM 82.6 °F 84.9 °F 66.6 °F 58% 30.04 in 10.0 mi Variable 6.9 mph - N/A   Clear
5:58 PM 79.9 °F - 67.8 °F 66% 30.05 in 10.0 mi Calm Calm - N/A   Clear
6:58 PM 79.3 °F - 68.7 °F 70% 30.06 in 10.0 mi Calm Calm - N/A   Clear
7:58 PM 78.1 °F - 69.1 °F 74% 30.05 in 10.0 mi NE 1.2 mph - N/A   Partly Cloudy
8:58 PM 73.8 °F - 70.0 °F 88% 30.07 in 10.0 mi East 5.8 mph - N/A   Clear
9:58 PM 72.0 °F - 70.0 °F 93% 30.07 in 10.0 mi WSW 3.5 mph - N/A   Clear
10:58 PM 71.4 °F - 70.3 °F 96% 30.08 in 10.0 mi SSE 3.5 mph - N/A   Clear
11:58 PM 72.7 °F - 69.4 °F 90% 30.08 in 10.0 mi East 2.3 mph - N/A   Scattered Clouds